Time,TemperatureF,DewpointF,PressureIn,WindDirection,WindDirectionDegrees,WindSpeedMPH,WindSpeedGustMPH,Humidity,HourlyPrecipIn,Conditions,Clouds,dailyrainin,SolarRadiationWatts/m^2,SoftwareType,DateUTC
2013-09-19 00:02:00,68.0,57.0,-100.00,NE,41,13.0,16.0,68,-99.99,,,-99.99,0.000000,,2013-09-19 06:02:00,
2013-09-19 00:43:00,67.0,57.0,-100.00,NNE,28,9.0,11.0,69,-99.99,,,-99.99,0.000000,,2013-09-19 06:43:00,
2013-09-19 01:42:00,68.0,57.0,30.09,NE,43,8.0,10.0,68,-99.99,,,-99.99,0.000000,,2013-09-19 07:42:00,
2013-09-19 02:22:00,66.0,57.0,30.08,NE,41,12.0,16.0,71,-99.99,,,-99.99,0.000000,,2013-09-19 08:22:00,
2013-09-19 02:42:00,66.0,57.0,30.09,NE,38,12.0,16.0,71,-99.99,,,-99.99,0.000000,,2013-09-19 08:42:00,
2013-09-19 03:21:00,67.0,57.0,30.08,NE,36,11.0,14.0,70,-99.99,,,-99.99,0.000000,,2013-09-19 09:21:00,
2013-09-19 03:43:00,66.0,57.0,30.08,NNE,30,10.0,13.0,71,-99.99,,,-99.99,0.000000,,2013-09-19 09:43:00,
2013-09-19 04:43:00,64.0,57.0,30.08,NE,39,11.0,14.0,78,-99.99,,,-99.99,0.000000,,2013-09-19 10:43:00,
2013-09-19 05:42:00,64.0,57.0,30.08,NE,39,9.0,12.0,78,-99.99,,,-99.99,0.000000,,2013-09-19 11:42:00,
2013-09-19 05:53:00,64.0,57.0,30.07,NNE,31,7.0,11.0,77,-99.99,,,-99.99,0.000000,,2013-09-19 11:53:00,
2013-09-19 06:01:00,64.0,57.0,30.07,NNE,31,7.0,11.0,77,-99.99,,,-99.99,0.000000,,2013-09-19 12:01:00,
2013-09-19 06:43:00,64.0,57.0,30.08,NE,36,8.0,13.0,79,-99.99,,,-99.99,0.000000,,2013-09-19 12:43:00,
2013-09-19 07:42:00,63.0,58.0,-100.00,NE,44,7.0,10.0,82,-99.99,,,-99.99,9.070000,,2013-09-19 13:42:00,
2013-09-19 08:12:00,64.0,59.0,-100.00,NE,54,9.0,12.0,81,-99.99,,,-99.99,86.470001,,2013-09-19 14:12:00,
2013-09-19 08:52:00,66.0,59.0,-100.00,ENE,58,10.0,14.0,77,-99.99,,,-99.99,36.959999,,2013-09-19 14:52:00,
2013-09-19 09:01:00,66.0,59.0,-100.00,ENE,58,10.0,14.0,77,-99.99,,,-99.99,36.959999,,2013-09-19 15:01:00,
2013-09-19 10:00:00,68.0,60.0,-100.00,ENE,71,10.0,14.0,75,-99.99,,,-99.99,458.850006,,2013-09-19 16:00:00,
2013-09-19 10:42:00,68.0,60.0,-100.00,ENE,71,10.0,14.0,75,-99.99,,,-99.99,458.850006,,2013-09-19 16:42:00,
2013-09-19 10:52:00,68.0,60.0,-100.00,ENE,71,10.0,14.0,75,-99.99,,,-99.99,458.850006,,2013-09-19 16:52:00,
2013-09-19 12:42:00,72.0,59.0,30.12,ENE,78,11.0,17.0,65,-99.99,,,-99.99,710.580017,,2013-09-19 18:42:00,
2013-09-19 13:42:00,72.0,59.0,30.10,ENE,77,13.0,19.0,63,-99.99,,,-99.99,546.010010,,2013-09-19 19:42:00,
2013-09-19 14:42:00,74.0,58.0,30.08,East,91,11.0,17.0,56,-99.99,,,-99.99,730.809998,,2013-09-19 20:42:00,
2013-09-19 15:44:00,75.0,56.0,30.07,ENE,75,12.0,18.0,50,-99.99,,,-99.99,626.210022,,2013-09-19 21:44:00,
2013-09-19 16:14:00,75.0,54.0,-100.00,East,98,11.0,16.0,48,-99.99,,,-99.99,575.299988,,2013-09-19 22:14:00,
2013-09-19 16:24:00,76.0,52.0,30.04,East,91,14.0,21.0,43,-99.99,,,-99.99,541.130005,,2013-09-19 22:24:00,
2013-09-19 16:42:00,77.0,52.0,30.04,East,79,12.0,23.0,42,-99.99,,,-99.99,498.589996,,2013-09-19 22:42:00,
2013-09-19 17:12:00,74.0,51.0,-100.00,East,79,14.0,19.0,44,-99.99,,,-99.99,42.540001,,2013-09-19 23:12:00,
2013-09-19 17:22:00,74.0,54.0,-100.00,ENE,73,15.0,19.0,50,-99.99,,,-99.99,69.730003,,2013-09-19 23:22:00,
2013-09-19 17:33:00,74.0,54.0,-100.00,ENE,73,15.0,19.0,50,-99.99,,,-99.99,69.730003,,2013-09-19 23:33:00,
2013-09-19 18:22:00,70.0,59.0,30.02,ENE,59,33.0,44.0,68,-99.99,,,-99.99,51.599998,,2013-09-20 00:22:00,
2013-09-19 18:32:00,70.0,59.0,30.02,ENE,59,33.0,44.0,68,-99.99,,,-99.99,51.599998,,2013-09-20 00:32:00,
2013-09-19 19:42:00,62.0,58.0,-100.00,ENE,77,23.0,29.0,86,-99.99,,,-99.99,2.090000,,2013-09-20 01:42:00,
2013-09-19 19:52:00,63.0,57.0,30.06,ENE,70,20.0,25.0,80,-99.99,,,-99.99,0.000000,,2013-09-20 01:52:00,
2013-09-19 20:02:00,63.0,57.0,30.06,ENE,70,20.0,25.0,80,-99.99,,,-99.99,0.000000,,2013-09-20 02:02:00,
2013-09-19 20:42:00,65.0,55.0,-100.00,ENE,74,19.0,24.0,69,-99.99,,,-99.99,0.000000,,2013-09-20 02:42:00,
2013-09-19 20:53:00,65.0,55.0,-100.00,ENE,72,18.0,23.0,71,-99.99,,,-99.99,0.000000,,2013-09-20 02:53:00,
2013-09-19 21:12:00,64.0,55.0,-100.00,ENE,59,18.0,21.0,71,-99.99,,,-99.99,0.000000,,2013-09-20 03:12:00,
2013-09-19 21:45:00,65.0,54.0,30.09,ENE,65,16.0,19.0,66,-99.99,,,-99.99,0.000000,,2013-09-20 03:45:00,
2013-09-19 21:56:00,65.0,54.0,-100.00,ENE,62,16.0,19.0,67,-99.99,,,-99.99,0.000000,,2013-09-20 03:56:00,
2013-09-19 22:05:00,65.0,54.0,-100.00,ENE,62,16.0,19.0,67,-99.99,,,-99.99,0.000000,,2013-09-20 04:05:00,
2013-09-19 22:44:00,65.0,56.0,-100.00,NE,54,19.0,23.0,74,-99.99,,,-99.99,0.000000,,2013-09-20 04:44:00,
2013-09-19 23:13:00,64.0,58.0,-100.00,NE,50,20.0,25.0,79,-99.99,,,-99.99,0.000000,,2013-09-20 05:13:00,
2013-09-19 23:23:00,64.0,58.0,-100.00,NE,45,12.0,20.0,80,-99.99,,,-99.99,0.000000,,2013-09-20 05:23:00,
2013-09-19 23:43:00,63.0,58.0,30.12,ENE,60,17.0,21.0,83,-99.99,,,-99.99,0.000000,,2013-09-20 05:43:00,